Regional Weather Roundup
Issued by NWS Bismarck, ND

Home | Current Version | Previous Version | Text Only | Print | Product List | Glossary On
Versions: 1 2 3 4 5 6 7 8 9 10 11 12 13 14 15 16 17 18 19 20 21 22 23 24 25 26 27 28 29 30 31 32 33 34 35 36 37 38 39 40 41 42 43 44 45 46 47 48 49 50
000
ASUS43 KBIS 172302
RWRBIS

NWR BROADCAST TEXT
NATIONAL WEATHER SERVICE BISMARCK ND
600 PM CDT TUE OCT 17 2017

NOTE: "FAIR" INDICATES FEW OR NO CLOUDS BELOW 12,000 FEET WITH NO
SIGNIFICANT WEATHER AND/OR OBSTRUCTIONS TO VISIBILITY.


CITY           SKY/WX    TMP DP  RH WIND       PRES   REMARKS
WILLISTON      CLEAR     75  25  15 SW17G24   29.61F
MINOT          CLEAR     75  30  19 S13G24    29.61F
MINOT AFB      CLEAR     74  30  20 SW15      29.59F
BISMARCK       CLEAR     76  24  14 SW12      29.73F
DICKINSON      CLEAR     73  24  16 SW16      29.72F
GARRISON         N/A     71  34  25 SW14      29.67F
HETTINGER ARPT CLEAR     74  21  13 SW9       29.81F
JAMESTOWN      CLEAR     73  30  20 SW8       29.73F
CARRINGTON     FAIR      72  34  25 SW9       29.72F
HAZEN          FAIR      75  23  14 SW10      29.70F
LINTON         FAIR      77  30  18 SW13G18   29.78S
RUGBY          FAIR      72  32  23 SW9       29.63F
STANLEY        FAIR      72  28  20 SW18      29.64F
TIOGA          FAIR      72  27  18 SW17G26   29.62F
WATFORD CITY   FAIR      73  27  17 SW12G21   29.64F
$$

CITY           SKY/WX    TMP DP  RH WIND       PRES   REMARKS
GRAND FORKS    PTCLDY    76  29  17 SW12G25   29.67F
GRAND FORKS AF CLEAR     73  31  21 SW9       29.68S
DEVILS LAKE    CLEAR     70  35  27 SW13      29.67F
FARGO          CLEAR     71  41  33 S13       29.74F
CANDO          FAIR      72  32  23 SW15G22   29.66S
CAVALIER       FAIR      73  39  29 SW8G15    29.62F
GRAFTON        FAIR      73  34  23 SW14      29.66F
GWINNER        CLEAR     72  39  30 S8        29.77F
LANGDON        FAIR      70  34  26 SW17G24   29.64F
ROLLA          FAIR      70  30  23 SW16G23   29.62F
WALHALLA       FAIR     N/A N/A N/A SW10G17   29.61F
$$

CITY           SKY/WX    TMP DP  RH WIND       PRES   REMARKS
ABERDEEN       CLEAR     74  39  28 S9        29.81F
MOBRIDGE       CLEAR     76  38  25 S10       29.77F
BUFFALO          N/A     76  16  10 SW15      29.75F
RAPID CITY     SUNNY     75  25  15 SE9       29.84F
GLASGOW        CLOUDY    72  23  16 SW12      29.58F
SIDNEY         CLEAR     74  22  14 SW14      29.63F
WOLF POINT     SUNNY     79  22  12 SW15      29.59F
GLENDIVE       CLOUDY    72  23  16 SW16      29.69F
MILES CITY     CLOUDY    78  24  13 SW13      29.73F
BAKER          CLEAR     73  24  16 SW14      29.77F
$$

CITY           SKY/WX    TMP DP  RH WIND       PRES   REMARKS
BILLINGS       CLOUDY    75  21  13 SW18G26   29.78F
GREAT FALLS    SUNNY     71  21  15 SW30G46   29.64F
$$




USA.gov is the U.S. government's official web portal to all federal, state and local government web resources and services.